Home > Weather > Stonewall > Past weeks

Flag for Canada Past Weather in Stonewall, Manitoba, Canada — Yesterday and Last 2 Weeks

Now
79 °F

Scattered clouds.


Feels Like: 81 °F
Forecast: 60 / 76 °F
Wind: 17 mph from West

Location: Winnipeg Int. Airportman.

Current Time: Jun 25, 2016 at 2:42:44 PM

Latest Report: Jun 25, 2016 at 2:00 PM


Visibility: 15 mi

Pressure: 29.59 "Hg

Humidity: 61%

Dew Point: 64 °F

Location of StonewallLocation

Past Weather in Stonewall — Graph

°F

Stonewall Temperature Yesterday

Maximum temperature yesterday: 81 °F (at 3:00 PM)
Minimum temperature yesterday: 59 °F (at 5:00 AM)
Average temperature yesterday: 71 °F

High & Low Weather Summary for the Past Weeks

 TemperatureHumidityPressure
High86 °F (Jun 10, 3:00 PM)100% (Jun 19, 4:00 AM)30.21 "Hg (Jun 19, 4:00 AM)
Low48 °F (Jun 21, 4:00 AM)32% (Jun 13, 2:00 PM)29.57 "Hg (Jun 25, 6:00 AM)
Average66 °F69%29.93 "Hg
* Reported Jun 10 1:00 PM — Jun 25 1:00 PM, Stonewall, Weather by CustomWeather, © 2016

Note: Actual official high and low records may vary slightly from our data, if they occured in-between our weather recording intervals... More about our weather records

Advertising

Stonewall Weather History for the Previous 24 Hours

Scroll right to see more
 ConditionsComfort  
Time TempWeatherWind HumidityBarometerVisibility
1:00 PM
Sat, Jun 25
77 °FPassing clouds.16 mph69%29.60 "Hg15 mi
12:00 PM73 °FPartly sunny.14 mph78%29.61 "Hg15 mi
11:00 AM72 °FPartly sunny.12 mph83%29.62 "Hg15 mi
10:00 AM70 °FOvercast.15 mph83%29.63 "Hg15 mi
9:00 AM72 °FScattered clouds.10 mph83%29.63 "Hg15 mi
8:00 AM68 °FPartly sunny.14 mph83%29.61 "Hg15 mi
7:00 AM66 °FPartly sunny.17 mph88%29.62 "Hg15 mi
6:00 AM66 °FLight rain. Passing clouds.17 mph83%29.57 "Hg12 mi
5:46 AM66 °FLight rain. Mostly cloudy.17 mph88%29.59 "Hg12 mi
5:00 AM64 °FMostly cloudy.15 mph94%29.62 "Hg15 mi
4:00 AM66 °FThunderstorms. Mostly cloudy.12 mph94%29.68 "Hg10 mi
3:00 AM70 °FSevere thunderstorms. Mostly cloudy.6 mph83%29.68 "Hg2 mi
2:53 AM70 °FThunderstorms. Overcast.3 mph83%29.67 "Hg5 mi
2:00 AM70 °FThunderstorms. Mostly cloudy.13 mph83%29.62 "Hg15 mi
1:00 AM73 °FMostly cloudy.14 mph69%29.67 "Hg15 mi
12:00 AM73 °FMostly cloudy.16 mph69%29.69 "Hg15 mi
11:00 PM
Fri, Jun 24
73 °FPassing clouds.13 mph69%29.71 "Hg15 mi
10:00 PM73 °FPartly sunny.12 mph74%29.73 "Hg15 mi
9:00 PM73 °FThunderstorms. Partly sunny.14 mph74%29.74 "Hg15 mi
8:00 PM77 °FPartly sunny.17 mph61%29.75 "Hg15 mi
7:00 PM75 °FSprinkles. Broken clouds.12 mph69%29.78 "Hg15 mi
6:00 PM79 °FPartly sunny.16 mph58%29.78 "Hg15 mi
5:00 PM79 °FPartly sunny.18 mph54%29.80 "Hg15 mi
4:00 PM79 °FBroken clouds.13 mph54%29.83 "Hg15 mi
3:00 PM81 °FPartly sunny.9 mph54%29.85 "Hg15 mi
2:00 PM79 °FBroken clouds.17 mph51%29.87 "Hg15 mi
Weather by CustomWeather, © 2016

See weather overviewHow to use our weather pages